TimeEDT,TemperatureF,Dew PointF,Humidity,Sea Level PressureIn,VisibilityMPH,Wind Direction,Wind SpeedMPH,Gust SpeedMPH,PrecipitationIn,Events,Conditions,WindDirDegrees,DateUTC
12:15 AM,40.5,-9999,N/A,30.23,10.0,Calm,Calm,-,N/A,,Clear,0,2012-10-12 04:15:00
12:35 AM,39.6,-9999,N/A,30.23,10.0,Calm,Calm,-,N/A,,Clear,0,2012-10-12 04:35:00
12:55 AM,39.7,-9999,N/A,30.22,10.0,Calm,Calm,-,N/A,,Clear,0,2012-10-12 04:55:00
1:15 AM,39.2,-9999,N/A,30.22,10.0,Calm,Calm,-,N/A,,Clear,0,2012-10-12 05:15:00
1:35 AM,39.4,-9999,N/A,30.22,10.0,Calm,Calm,-,N/A,,Clear,0,2012-10-12 05:35:00
2:15 AM,39.7,-9999,N/A,30.21,10.0,Calm,Calm,-,N/A,,Clear,0,2012-10-12 06:15:00
2:35 AM,38.8,-9999,N/A,30.20,10.0,Calm,Calm,-,N/A,,Clear,0,2012-10-12 06:35:00
2:55 AM,39.6,-9999,N/A,30.20,10.0,Calm,Calm,-,N/A,,Clear,0,2012-10-12 06:55:00
3:15 AM,38.3,-9999,N/A,30.20,10.0,Calm,Calm,-,N/A,,Clear,0,2012-10-12 07:15:00
3:35 AM,38.7,-9999,N/A,30.19,7.0,Calm,Calm,-,N/A,,Clear,0,2012-10-12 07:35:00
3:55 AM,38.8,-9999,N/A,30.19,10.0,Calm,Calm,-,N/A,,Clear,0,2012-10-12 07:55:00
4:15 AM,39.6,-9999,N/A,30.20,10.0,Calm,Calm,-,N/A,,Clear,0,2012-10-12 08:15:00
4:35 AM,38.5,-9999,N/A,30.20,7.0,Calm,Calm,-,N/A,,Clear,0,2012-10-12 08:35:00
4:55 AM,39.0,-9999,N/A,30.20,7.0,Calm,Calm,-,N/A,,Clear,0,2012-10-12 08:55:00
5:15 AM,37.9,-9999,N/A,30.20,5.0,Calm,Calm,-,N/A,,Haze,0,2012-10-12 09:15:00
5:35 AM,38.5,-9999,N/A,30.21,7.0,Calm,Calm,-,N/A,,Clear,0,2012-10-12 09:35:00
5:55 AM,38.5,-9999,N/A,30.21,5.0,Calm,Calm,-,N/A,,Haze,0,2012-10-12 09:55:00
6:15 AM,39.0,-9999,N/A,30.20,5.0,Calm,Calm,-,N/A,,Haze,0,2012-10-12 10:15:00
6:35 AM,37.6,-9999,N/A,30.20,2.5,Calm,Calm,-,N/A,,Clear,0,2012-10-12 10:35:00
6:55 AM,36.3,-9999,N/A,30.20,4.0,Calm,Calm,-,N/A,,Haze,0,2012-10-12 10:55:00
7:15 AM,36.5,-9999,N/A,30.21,5.0,Calm,Calm,-,N/A,,Haze,0,2012-10-12 11:15:00
7:35 AM,36.9,-9999,N/A,30.21,7.0,Calm,Calm,-,N/A,,Clear,0,2012-10-12 11:35:00
7:55 AM,38.3,-9999,N/A,30.23,7.0,NW,5.8,-,N/A,,Clear,310,2012-10-12 11:55:00
8:35 AM,45.9,-9999,N/A,30.23,10.0,Calm,Calm,-,N/A,,Clear,0,2012-10-12 12:35:00
8:55 AM,48.2,-9999,N/A,30.24,10.0,Calm,Calm,-,N/A,,Clear,0,2012-10-12 12:55:00
9:15 AM,50.4,-9999,N/A,30.24,10.0,Calm,Calm,-,N/A,,Clear,0,2012-10-12 13:15:00
9:35 AM,53.6,51.4,92,30.24,10.0,Calm,Calm,-,N/A,,Clear,0,2012-10-12 13:35:00
10:15 AM,59.0,44.6,59,30.25,10.0,Calm,Calm,-,N/A,,Clear,0,2012-10-12 14:15:00
10:35 AM,61.2,40.8,47,30.25,10.0,Calm,Calm,-,N/A,,Clear,0,2012-10-12 14:35:00
10:55 AM,-9999,-9999,N/A,-9999,-9999.0,North,-9999.0,-,N/A,,Unknown,0,2012-10-12 14:55:00
11:15 AM,-9999,-9999,N/A,-9999,-9999.0,North,-9999.0,-,N/A,,Unknown,0,2012-10-12 15:15:00
11:35 AM,65.1,36.5,35,30.25,10.0,NNW,10.4,17.3,N/A,,Clear,330,2012-10-12 15:35:00
11:55 AM,65.8,35.2,32,30.26,10.0,NNW,15.0,20.7,N/A,,Clear,330,2012-10-12 15:55:00
12:15 PM,66.6,34.7,31,30.26,10.0,NNW,13.8,-,N/A,,Clear,340,2012-10-12 16:15:00
12:35 PM,67.3,35.6,31,30.26,10.0,NW,17.3,21.9,N/A,,Clear,320,2012-10-12 16:35:00
12:55 PM,67.6,35.6,31,30.26,10.0,NNW,17.3,23.0,N/A,,Clear,340,2012-10-12 16:55:00
1:15 PM,67.5,36.1,32,30.25,10.0,NW,8.1,20.7,N/A,,Clear,320,2012-10-12 17:15:00
1:55 PM,67.3,37.9,34,30.24,10.0,NNW,16.1,23.0,N/A,,Clear,330,2012-10-12 17:55:00
2:35 PM,67.1,37.6,34,30.24,10.0,NNW,15.0,25.3,N/A,,Clear,330,2012-10-12 18:35:00
2:55 PM,66.6,39.2,37,30.25,10.0,North,13.8,23.0,N/A,,Clear,350,2012-10-12 18:55:00
3:15 PM,66.4,38.8,36,30.25,10.0,North,15.0,20.7,N/A,,Clear,10,2012-10-12 19:15:00
3:35 PM,65.3,39.0,38,30.27,10.0,NNW,20.7,-,N/A,,Clear,340,2012-10-12 19:35:00
4:15 PM,63.1,39.7,42,30.28,10.0,North,16.1,21.9,N/A,,Scattered Clouds,360,2012-10-12 20:15:00
4:35 PM,62.4,39.2,42,30.30,10.0,North,18.4,25.3,N/A,,Clear,350,2012-10-12 20:35:00
4:55 PM,60.4,39.9,47,30.31,10.0,North,10.4,21.9,N/A,,Clear,360,2012-10-12 20:55:00
5:15 PM,57.9,39.2,50,30.31,10.0,North,16.1,25.3,N/A,,Clear,350,2012-10-12 21:15:00
5:35 PM,57.6,39.2,50,30.33,10.0,North,13.8,18.4,N/A,,Clear,350,2012-10-12 21:35:00
5:55 PM,56.1,38.7,52,30.35,10.0,North,12.7,21.9,N/A,,Clear,350,2012-10-12 21:55:00
6:15 PM,55.0,37.2,51,30.36,10.0,North,10.4,21.9,N/A,,Clear,350,2012-10-12 22:15:00
6:55 PM,51.3,36.5,57,30.38,10.0,Calm,Calm,-,N/A,,Clear,0,2012-10-12 22:55:00
7:15 PM,49.1,38.3,66,30.38,10.0,NW,4.6,-,N/A,,Clear,310,2012-10-12 23:15:00
7:35 PM,48.0,37.9,68,30.40,10.0,Calm,Calm,-,N/A,,Clear,0,2012-10-12 23:35:00
7:55 PM,44.2,38.7,81,30.40,10.0,WNW,4.6,-,N/A,,Clear,300,2012-10-12 23:55:00
8:15 PM,43.7,38.1,81,30.41,10.0,Calm,Calm,-,N/A,,Clear,0,2012-10-13 00:15:00
8:35 PM,42.1,39.6,91,30.42,10.0,Calm,Calm,-,N/A,,Clear,0,2012-10-13 00:35:00